Flight Track Log - Related Links

Times and Time Zones

All times are in EDT time to prevent confusion due to time zone crossing. See the N714RM flight status page for this flight to view local times or setup timezone preferences in your user account.

Time Position Orientation Groundspeed Altitude Reporting Facility
EDT Latitude Longitude Course Direction KTS MPH feet Rate Location/Type
Thu 02:08:54 AM 37.4333 -121.9333 15° North 241 277 4,500  Level Northern Cal TRACON
Thu 02:09:54 AM 37.4000 -121.8500 117° Southeast 266 306 7,100 2,333 Climbing Northern Cal TRACON
Thu 02:11:00 AM 37.3333 -121.7833 142° Southeast 291 335 9,400 2,143 Climbing Northern Cal TRACON
Thu 02:12:00 AM 37.2833 -121.7167 133° Southeast 305 351 11,600 2,263 Climbing Northern Cal TRACON
Thu 02:12:54 AM 37.2167 -121.6500 141° Southeast 310 357 13,700 1,944 Climbing Northern Cal TRACON
Thu 02:13:00 AM 37.0423 -121.5546 138° Southeast  Level Estimated
Thu 02:13:11 AM 37.2100 -121.6394 128° Southeast 306 352 13,900  Level Oakland Center
Thu 02:14:12 AM 37.1442 -121.5656 138° Southeast 316 364 16,100 2,132 Climbing Oakland Center
Thu 02:15:12 AM 37.0747 -121.4908 139° Southeast 319 367 18,200 2,150 Climbing Oakland Center
Thu 02:16:12 AM 37.0086 -121.4189 139° Southeast 316 364 20,400 2,083 Climbing Oakland Center
Thu 02:17:13 AM 36.9425 -121.3475 139° Southeast 315 362 22,400 1,934 Climbing Oakland Center
Thu 02:18:13 AM 36.8753 -121.2758 140° Southeast 318 366 24,300 1,835 Climbing Oakland Center
Thu 02:19:14 AM 36.8003 -121.1950 139° Southeast 322 371 26,100 1,636 Climbing Oakland Center
Thu 02:20:14 AM 36.7297 -121.1186 139° Southeast 331 381 27,600 1,388 Climbing Oakland Center
Thu 02:21:15 AM 36.6586 -121.0461 141° Southeast 332 382 28,900 694 Climbing Oakland Center
Thu 02:22:15 AM 36.5825 -120.9639 139° Southeast 354 407 29,000 50 Climbing Oakland Center
Thu 02:23:15 AM 36.4989 -120.8756 140° Southeast 385 443 29,000  Level Oakland Center
Thu 02:24:16 AM 36.4147 -120.7828 138° Southeast 401 461 29,000  Level Oakland Center
Thu 02:25:16 AM 36.3286 -120.6925 140° Southeast 405 466 29,000  Level Oakland Center
Thu 02:26:17 AM 36.2433 -120.6022 139° Southeast 405 466 29,000  Level Oakland Center
Thu 02:27:17 AM 36.1569 -120.5119 140° Southeast 405 466 29,000  Level Oakland Center
Thu 02:28:17 AM 36.0697 -120.4169 139° Southeast 420 483 29,000  Level Oakland Center
Thu 02:29:18 AM 35.9844 -120.3303 141° Southeast 393 452 29,000  Level Oakland Center
Thu 02:30:18 AM 35.8983 -120.2394 139° Southeast 404 465 29,000  Level Oakland Center
Thu 02:31:19 AM 35.8111 -120.1503 140° Southeast 405 466 29,000  Level Oakland Center
Thu 02:32:19 AM 35.7247 -120.0600 140° Southeast 404 465 29,000  Level Oakland Center
Thu 02:33:19 AM 35.6375 -119.9708 140° Southeast 404 465 29,000  Level Oakland Center
Thu 02:34:20 AM 35.5461 -119.8911 145° Southeast 401 461 29,000  Level Oakland Center
Thu 02:35:20 AM 35.4544 -119.8114 145° Southeast 401 461 29,000  Level Oakland Center
Thu 02:36:21 AM 35.3628 -119.7325 145° Southeast 400 460 29,000  Level Oakland Center
Thu 02:37:21 AM 35.2711 -119.6542 145° Southeast 399 459 29,000  Level Oakland Center
Thu 02:37:36 AM 35.2528 -119.6383 145° Southeast 401 461 29,000  Level Los Angeles Center
Thu 02:38:36 AM 35.1611 -119.5603 145° Southeast 400 460 29,000  Level Los Angeles Center
Thu 02:39:37 AM 35.0700 -119.4819 145° Southeast 400 460 29,000  Level Los Angeles Center
Thu 02:40:37 AM 34.9783 -119.4033 145° Southeast 400 460 29,000  Level Los Angeles Center
Thu 02:41:38 AM 34.8869 -119.3258 145° Southeast 400 460 29,000  Level Los Angeles Center
Thu 02:42:38 AM 34.7950 -119.2469 145° Southeast 403 464 29,000  Level Los Angeles Center
Thu 02:43:38 AM 34.6850 -119.1544 145° Southeast 401 461 29,000 -99 Level Los Angeles Center
Thu 02:44:39 AM 34.6089 -119.0936 147° Southeast 399 459 28,800 -1,091 Descending Los Angeles Center
Thu 02:45:39 AM 34.5189 -119.0189 146° Southeast 394 453 26,800 -2,281 Descending Los Angeles Center
Thu 02:46:40 AM 34.4089 -118.9253 145° Southeast 403 464 24,200 -2,331 Descending Los Angeles Center
Thu 02:47:40 AM 34.3133 -118.8653 153° Southeast 382 440 22,100 -1,983 Descending Los Angeles Center
Thu 02:48:41 AM 34.2158 -118.8306 164° South 364 419 20,200 -1,884 Descending Los Angeles Center
Thu 02:49:41 AM 34.1222 -118.7961 163° South 353 406 18,300 -1,835 Descending Los Angeles Center
Thu 02:50:42 AM 34.0272 -118.7603 163° South 347 399 16,500 -1,785 Descending Los Angeles Center
Thu 02:51:42 AM 33.9372 -118.7278 163° South 340 391 14,700 -1,339 Descending Los Angeles Center
Thu 02:52:43 AM 33.8533 -118.6978 163° South 315 362 13,800 -1,140 Descending Los Angeles Center
Thu 02:53:43 AM 33.7847 -118.6617 156° South 293 337 12,400 -1,650 Descending Los Angeles Center
Thu 02:54:43 AM 33.7286 -118.5897 133° Southeast 295 339 10,500 -1,884 Descending Los Angeles Center
Thu 02:55:44 AM 33.6769 -118.5208 132° Southeast 283 326 8,600 -1,884 Descending Los Angeles Center
Thu 02:56:44 AM 33.6397 -118.4458 121° Southeast 276 318 6,700 -1,736 Descending Los Angeles Center
Thu 02:57:45 AM 33.6211 -118.3603 105° East 272 313 5,100 -1,041 Descending Los Angeles Center
Thu 02:58:45 AM 33.6339 -118.2592 81° East 275 316 4,600 -694 Descending Los Angeles Center
Thu 02:59:46 AM 33.6650 -118.1792 65° Northeast 273 314 3,700 -843 Descending Los Angeles Center
Thu 03:00:46 AM 33.6969 -118.1092 61° Northeast 258 297 2,900 -439 Descending Los Angeles Center
Thu 03:01:08 AM 33.7167 -118.0833 47° Northeast 209 241 3,100 136 Climbing Southern California TRACON
Thu 03:02:14 AM 33.7333 -118.0167 73° East 212 244 3,100  Level Southern California TRACON
Thu 03:03:14 AM 33.7667 -117.9667 51° Northeast 204 235 3,100  Level Southern California TRACON
Thu 03:04:14 AM 33.8000 -117.9167 51° Northeast 174 200 3,100  Level Southern California TRACON
Thu 03:05:14 AM 33.8167 -117.8667 68° East 166 191 3,100  Level Southern California TRACON
Thu 03:06:14 AM 33.8333 -117.8167 68° East 168 193 3,100  Level Southern California TRACON
Thu 03:07:20 AM 33.8000 -117.7833 140° Southeast 162 186 3,100 -476 Level Southern California TRACON
Thu 03:08:20 AM 33.7667 -117.8167 220° Southwest 141 162 2,100 -850 Descending Southern California TRACON
Thu 03:09:20 AM 33.7333 -117.8333 203° Southwest 122 140 1,400 -700 Descending Southern California TRACON

Login

Don't have an account? Register now (free) for customized features, flight alerts, and more!